User: anonymous   Login
Location: Barnston
(51.8500°N, 0.4000°E)
Time: 23:11:54
(UTC+00:00)
Language:

Cosmos 1743 - Orbit

View from above orbital plane
View from above orbital plane
View from above satellite
View from above satellite

Ground track
Ground track

The orbit data is extracted from the following two-line orbital elements,

1 16719U 86034A   24055.54578959  .00008098  00000-0  31838-3 0  9994
2 16719  82.5461 111.1289 0011497  77.9854 282.2672 15.25452099 65807
Epoch (UTC): 24 February 2024 13:05:56
Eccentricity: 0.0011497
inclination: 82.5461°
perigee height: 481 km
apogee height: 497 km
right ascension of ascending node: 111.1289°
argument of perigee: 77.9854°
revolutions per day: 15.25452099
mean anomaly at epoch: 282.2672°
orbit number at epoch: 6580

The dashed part of the orbit path shows where the satellite is in the earth's shadow,  

DLR